[[{"header":{"parameterUnit":"m.s-1","parameterCategory":1,"la1":30.2991,"la2":30.254,"lo1":-89.0895,"lo2":-89.0444,"dy":0.0017,"dx":0.0017,"nx":28,"ny":28,"refTime":"2024-12-08T09:00:00:Z","depth":0,"parameterNumber":2,"parameterNumberName":"U-component_of_WINDS"},"data":[0,0,0,0,0,0,0,0,0,0,0,0,0,0,0,0,0,0,0,0,0,0,0,0,0,0,0,0,0,0,0,0,0,0,0,0,0,0,0,0,0,0,0,0,0,0,0,0,0,0,0,0,0,0,0,0,0,0,0.7092,0.7093,0,0.7119,0.712,0.712,0.7098,0.7097,0.7096,0.7095,0.7125,0.7126,0.7128,0,0,0,0,0,0,0,0,0,0,0,0,0,0.7023,0.7025,0.7092,0.7093,0.7093,0.7119,0.712,0.712,0.7098,0.7097,0.7096,0.7095,0.7124,0.7126,0.7128,0,0,0,0,0,0,0,0,0,0,0,0,0,0.7052,0.7025,0.7092,0.7085,0.7085,0.7119,0.712,0.712,0.7098,0.7097,0.7096,0.7094,0.7123,0.7126,0.7128,0.7171,0,0,0.7136,0.7137,0,0,0,0,0,0,0,0,0.7051,0.7055,0.7086,0.7086,0.7085,0.7104,0.7106,0.7137,0.7099,0.7093,0.7095,0.7094,0.7119,0.7122,0.713,0.7173,0.7174,0.7136,0.7137,0.7138,0.7139,0,0,0,0,0,0,0,0.7049,0.7053,0.7103,0.7086,0.7086,0.7081,0.7084,0.7112,0.7114,0.7094,0.7092,0.7096,0.7118,0.7127,0.713,0.7174,0.7136,0.7138,0.714,0.714,0.7255,0.7256,0,0,0,0,0,0,0.7047,0.7052,0.7102,0.7104,0.7064,0.7084,0.7086,0.7099,0.7113,0.7114,0.7097,0.7095,0.7124,0.7127,0.7131,0.7184,0.7138,0.7141,0.7142,0.7253,0.7255,0.7257,0,0,0,0,0,0,0.7046,0.7052,0.7101,0.7077,0.7083,0.7086,0.7101,0.7101,0.711,0.7116,0.7116,0.7106,0.7123,0.7128,0.7162,0.7184,0.7142,0.7144,0.7251,0.7254,0.7256,0.7288,0,0,0,0,0,0,0.7044,0.7051,0.7067,0.7078,0.7085,0.7131,0.7102,0.7102,0.7114,0.7111,0.7124,0.7125,0.7122,0.7158,0.7164,0.7187,0.7146,0.7249,0.7252,0.7255,0.7285,0.7291,0.7296,0,0,0,0,0,0.7041,0.7075,0.7068,0.7075,0.7105,0.7132,0.7136,0.7132,0.7116,0.7132,0.7136,0.7124,0.718,0.7162,0.7168,0.7192,0.7248,0.7252,0.7255,0.7282,0.729,0.7296,0,0,0,0,0,0,0.7068,0.7077,0.7069,0.7107,0.7119,0.7128,0.7149,0.714,0.7157,0.7154,0.7148,0.7151,0.7187,0.7193,0.7172,0.7235,0.7212,0.7217,0.723,0.7238,0.7243,0.7242,0.7148,0,0,0,0,0,0.7078,0.7099,0.7106,0.7139,0.7145,0.7146,0.7158,0.7154,0.7166,0.7171,0.7177,0.719,0.721,0.7224,0.7243,0.7285,0.7288,0.7305,0.7311,0.7315,0.732,0.7344,0.7352,0.7268,0.7268,0.7268,0,0,0.71,0.7107,0.7121,0.7144,0.7153,0.7176,0.715,0.7175,0.7192,0.7175,0.7207,0.7212,0.7226,0.7264,0.7282,0.727,0.7344,0.732,0.7323,0.7326,0.7349,0.7356,0.7364,0.7271,0.727,0.727,0,0,0.7151,0.7158,0.7187,0.7196,0.7209,0.721,0.7217,0.7227,0.723,0.7262,0.725,0.727,0.7305,0.7316,0.7326,0.7381,0.7371,0.7387,0.7418,0.7441,0.7448,0.7454,0.7475,0.7482,0.7392,0.7392,0.7392,0,0.7176,0.7209,0.7203,0.7229,0.724,0.7225,0.7255,0.7264,0.7283,0.7291,0.7278,0.7322,0.733,0.7372,0.7385,0.7393,0.7402,0.7387,0.7447,0.7453,0.7459,0.7479,0.7486,0.7394,0.7394,0.7393,0.7393,0,0.724,0.7263,0.7285,0.7304,0.7317,0.7345,0.7344,0.7358,0.7353,0.7355,0.7389,0.7398,0.7419,0.7428,0.7423,0.7469,0.7462,0.7448,0.7425,0.7469,0.7487,0.7495,0.7397,0.7396,0.7395,0.7395,0,0,0.731,0.7325,0.7333,0.7342,0.7355,0.7373,0.74,0.7421,0.7434,0.7447,0.7471,0.7501,0.7488,0.75,0.7496,0.7516,0.7561,0.75,0.75,0.7512,0.7613,0.7625,0.7634,0.7554,0.7555,0.7556,0.7613,0,0.7362,0.741,0.7405,0.745,0.7472,0.7458,0.7482,0.7493,0.7496,0.7515,0.7518,0.754,0.7521,0.7528,0.7547,0.7551,0.7581,0.7547,0.7577,0.7578,0.7575,0.7643,0.7656,0.7709,0.762,0.7621,0.7622,0,0.743,0.7446,0.7494,0.7505,0.7514,0.7535,0.7554,0.7572,0.7585,0.7585,0.7598,0.7591,0.7619,0.7594,0.7633,0.761,0.7622,0.7626,0.7627,0.7631,0.7604,0.7651,0.7725,0.7734,0.7633,0.7632,0.7632,0,0.7478,0.7511,0.7544,0.7552,0.7565,0.7581,0.7587,0.7598,0.7611,0.7627,0.7636,0.7655,0.7666,0.7682,0.768,0.7662,0.7721,0.7695,0.7723,0.7723,0.7737,0.7737,0.7816,0.7742,0.7742,0.7742,0.7742,0,0.7538,0.7568,0.7566,0.7586,0.762,0.7614,0.7648,0.7652,0.7662,0.7684,0.7672,0.7693,0.7689,0.7709,0.7708,0.7742,0.7746,0.7748,0.7748,0.775,0.775,0.7759,0.7756,0.7744,0.7744,0.7743,0.7743,0,0.7598,0.7597,0.7633,0.7642,0.7645,0.7669,0.7678,0.7697,0.7699,0.7726,0.7732,0.7735,0.7759,0.7758,0.7785,0.7784,0.7826,0.7821,0.7822,0.7822,0.785,0.7848,0.7939,0.7952,0.7868,0.7869,0.787,0,0.7637,0.766,0.7672,0.7685,0.7693,0.7714,0.7727,0.7723,0.7737,0.7753,0.7772,0.7794,0.7812,0.7851,0.7856,0.7876,0.7872,0.7903,0.7876,0.7878,0.7875,0.7874,0.7877,0.7909,0.791,0.7911,0.7911,0,0.7707,0.7706,0.7725,0.7744,0.776,0.7775,0.7789,0.7801,0.7798,0.7814,0.7839,0.7853,0.788,0.7903,0.7923,0.793,0.7921,0.7919,0.7927,0.7931,0.7931,0.7933,0.7838,0.7918,0.7917,0.7917,0.7916,0.7916,0.7759,0.7779,0.7791,0.7812,0.7822,0.7836,0.7855,0.7859,0.7879,0.7901,0.7897,0.7924,0.7937,0.7963,0.7972,0.7993,0.7983,0.7994,0.7997,0.8,0.8004,0.7926,0.7997,0.7997,0.7996,0.7996,0.7996,0,0.7829,0.7836,0.7856,0.7876,0.7894,0.7882,0.7897,0.7913,0.7937,0.7949,0.7967,0.7996,0.8018,0.8024,0.8046,0.8063,0.8059,0.8069,0.8068,0.807,0.8011,0.8003,0.8071,0.8071,0.8071,0.8071,0.8071,0.8071,0.7868,0.7902,0.7902,0.7941,0.7948,0.7974,0.7984,0.7997,0.8007,0.8039,0.8057,0.8061,0.8071,0.8094,0.8114,0.8115,0.8125,0.8137,0.8136,0.8082,0.8074,0.8067,0.8059,0.8138,0.8138,0.8194,0.8194,0.8194]},{"header":{"parameterUnit":"m.s-1","parameterCategory":1,"la1":30.2991,"la2":30.254,"lo1":-89.0895,"lo2":-89.0444,"dy":0.0017,"dx":0.0017,"nx":28,"ny":28,"refTime":"2024-12-08T09:00:00:Z","depth":0,"parameterNumber":3,"parameterNumberName":"V-component_of_WINDS"},"data":[0,0,0,0,0,0,0,0,0,0,0,0,0,0,0,0,0,0,0,0,0,0,0,0,0,0,0,0,0,0,0,0,0,0,0,0,0,0,0,0,0,0,0,0,0,0,0,0,0,0,0,0,0,0,0,0,0,0,2.9408,2.9408,0,2.9462,2.9463,2.9464,2.9447,2.9446,2.9445,2.9444,2.9501,2.9504,2.9506,0,0,0,0,0,0,0,0,0,0,0,0,0,2.929,2.9292,2.9407,2.9408,2.9409,2.9462,2.9463,2.9464,2.9448,2.9446,2.9445,2.9443,2.95,2.9503,2.9507,0,0,0,0,0,0,0,0,0,0,0,0,0,2.9343,2.9293,2.9407,2.9407,2.9408,2.9462,2.9463,2.9464,2.9448,2.9446,2.9444,2.9443,2.9499,2.9503,2.9507,2.9565,0,0,2.9519,2.9521,0,0,0,0,0,0,0,0,2.934,2.9347,2.9407,2.9407,2.9408,2.9446,2.9443,2.9498,2.9448,2.9433,2.9444,2.9442,2.9484,2.9489,2.9504,2.9568,2.957,2.9519,2.9522,2.9523,2.9524,0,0,0,0,0,0,0,2.9336,2.9345,2.9429,2.9407,2.9408,2.9405,2.941,2.9453,2.9468,2.9434,2.9433,2.9439,2.9484,2.95,2.9505,2.9571,2.9519,2.9523,2.9525,2.9526,2.9688,2.969,0,0,0,0,0,0,2.9332,2.9342,2.9427,2.9431,2.9369,2.9408,2.9415,2.9436,2.9467,2.947,2.9441,2.9438,2.9494,2.95,2.9507,2.9578,2.9523,2.9527,2.9529,2.9686,2.9688,2.969,0,0,0,0,0,0,2.9329,2.934,2.9425,2.9386,2.9397,2.9412,2.9436,2.9438,2.9453,2.9472,2.9475,2.9454,2.9493,2.9501,2.9551,2.958,2.9529,2.9532,2.9684,2.9687,2.9689,2.9721,0,0,0,0,0,0,2.9326,2.9339,2.9361,2.9387,2.9399,2.9468,2.9438,2.944,2.946,2.9457,2.9485,2.9488,2.9492,2.9545,2.9555,2.9584,2.9535,2.9681,2.9685,2.9688,2.9718,2.9725,2.9731,0,0,0,0,0,2.9322,2.9367,2.9362,2.9372,2.9426,2.947,2.9477,2.9481,2.9462,2.9485,2.9497,2.9487,2.9575,2.9551,2.9561,2.9592,2.9679,2.9684,2.9688,2.9715,2.9723,2.9731,0,0,0,0,0,0,2.9345,2.9371,2.9365,2.942,2.9443,2.9467,2.9496,2.9489,2.9518,2.9515,2.9518,2.9525,2.9576,2.9589,2.9561,2.9651,2.9624,2.9631,2.9641,2.9649,2.9656,2.9652,2.9538,0,0,0,0,0,2.9356,2.9389,2.941,2.9457,2.9468,2.948,2.9499,2.95,2.9524,2.9534,2.955,2.9574,2.9607,2.9629,2.966,2.9719,2.9726,2.9745,2.9752,2.9757,2.9764,2.9797,2.9807,2.9705,2.9705,2.9705,0,0,2.938,2.9398,2.9419,2.9462,2.948,2.9514,2.9488,2.9526,2.9552,2.9539,2.9588,2.96,2.9628,2.9683,2.9708,2.9695,2.9793,2.9763,2.9767,2.9771,2.9803,2.9813,2.9821,2.9708,2.9707,2.9707,0,0,2.9442,2.9459,2.95,2.9518,2.9546,2.9553,2.9563,2.9589,2.9597,2.9645,2.9637,2.9668,2.9724,2.9744,2.9762,2.9832,2.9825,2.9842,2.9877,2.991,2.9918,2.9925,2.9952,2.9961,2.9848,2.9848,2.9848,0,2.9469,2.952,2.9522,2.9561,2.958,2.957,2.9613,2.9631,2.9667,2.9681,2.9666,2.9737,2.9755,2.9815,2.9832,2.9846,2.9859,2.9839,2.9917,2.9924,2.9931,2.9956,2.9966,2.985,2.985,2.9849,2.9849,0,2.9553,2.9588,2.9619,2.9654,2.9677,2.9717,2.9726,2.9749,2.9747,2.9757,2.9807,2.9827,2.9863,2.9877,2.9876,2.9938,2.9929,2.9915,2.9889,2.9942,2.9966,2.9976,2.9853,2.9852,2.9852,2.9851,0,0,2.9631,2.9667,2.9678,2.9695,2.9724,2.9752,2.9792,2.9827,2.9848,2.9873,2.9908,2.9956,2.9943,2.9963,2.9965,2.9993,3.0049,2.9976,2.9977,2.999,3.012,3.0132,3.0143,3.0044,3.0046,3.0047,3.0118,0,2.9697,2.9767,2.977,2.9835,2.9869,2.986,2.9895,2.9917,2.9927,2.9958,2.9968,3.0003,2.9983,2.9996,3.0023,3.0036,3.0076,3.0031,3.0077,3.0079,3.0073,3.0155,3.0167,3.0233,3.0128,3.0129,3.013,0,2.9783,2.9811,2.9879,2.9905,2.9919,2.9951,2.9984,3.0012,3.0038,3.0043,3.0066,3.0063,3.0105,3.0076,3.0135,3.0104,3.0123,3.0133,3.0135,3.0141,3.0109,3.0165,3.0254,3.0265,3.0145,3.0144,3.0143,0,2.9836,2.989,2.9938,2.9953,2.9983,3.0006,3.002,3.0043,3.0064,3.0093,3.0107,3.014,3.0159,3.0185,3.0192,3.017,3.0251,3.0222,3.0258,3.0258,3.0276,3.0275,3.0372,3.0286,3.0286,3.0285,3.0285,0,2.9909,2.9952,2.9963,2.9992,3.004,3.0043,3.009,3.0102,3.0124,3.0156,3.015,3.0181,3.0187,3.0219,3.0225,3.0273,3.0281,3.0288,3.0289,3.0289,3.0289,3.0303,3.0299,3.0288,3.0287,3.0287,3.0287,0,2.9977,2.9985,3.0038,3.0062,3.007,3.0104,3.0125,3.0154,3.0163,3.0204,3.0214,3.0229,3.0267,3.0275,3.032,3.0324,3.0382,3.0378,3.0374,3.0374,3.041,3.0407,3.052,3.0536,3.0438,3.0439,3.0439,0,3.0024,3.0057,3.0085,3.0106,3.0121,3.0155,3.0177,3.0181,3.0204,3.0236,3.0262,3.0299,3.0329,3.039,3.0405,3.0439,3.0437,3.0474,3.0442,3.0442,3.044,3.0438,3.0442,3.0481,3.0482,3.0483,3.0484,0,3.0108,3.0111,3.0142,3.0176,3.0201,3.0228,3.0253,3.0271,3.0279,3.0305,3.0343,3.0367,3.0413,3.045,3.0485,3.05,3.0494,3.0493,3.0504,3.0505,3.0502,3.0506,3.0392,3.0491,3.049,3.049,3.0489,3.0489,3.0168,3.0197,3.0222,3.0257,3.0277,3.03,3.0329,3.0342,3.0374,3.0412,3.0412,3.0455,3.048,3.0526,3.0543,3.0577,3.0566,3.058,3.0584,3.0588,3.0592,3.0495,3.0583,3.0583,3.0583,3.0582,3.0582,0,3.0253,3.0269,3.0301,3.0337,3.0365,3.0355,3.0383,3.0407,3.0445,3.0469,3.0498,3.0543,3.058,3.0597,3.0633,3.0657,3.0656,3.0667,3.0666,3.067,3.0599,3.0588,3.0668,3.0668,3.0668,3.0668,3.0668,3.0668,3.0301,3.035,3.0356,3.0415,3.043,3.0471,3.0488,3.051,3.053,3.058,3.061,3.0621,3.0643,3.0681,3.0714,3.0718,3.0733,3.0746,3.0749,3.0683,3.0675,3.0666,3.0655,3.0749,3.0749,3.0817,3.0818,3.0818]}]]